Weather in Gulistan

Uzbekistan     40˚18′49″N   67˚58′34″E
temp.,
°C
wind,
m/s
gust,
m/s
humid.,
%
clouds,
%
prec.,
mm/h
press.,
hPa
HPBL,
m
30 november, mon
mon3023:00−1˚wnw12770 0.0 103621
02:00−2˚nw22806 0.0 103421
05:00−2˚wnw127846 0.0 103321
08:00−2˚nw1176100 0.0 103221
11:00+1˚nne1166100 0.0 1031321
14:00+4˚nne235788 0.0 1028435
17:00+2˚nne236494 0.0 102826
20:00+1˚nne1268100 0.0 102825
1 december, tue
tue123:00ese0170100 0.0 102821
02:00+1˚ssw1169100 0.0 102722
05:00+1˚se4677100 1.1 1027116
08:00+2˚se5783100 2.6 1027172
11:00+7˚ene335582 2.6 1026204
14:00+11˚e22462 0.0 1024351
17:00+9˚e34511 0.0 102551
20:00+7˚ese225812 0.0 102627
2 december, wed
wed223:00+6˚e126253 0.0 102625
02:00+6˚se017098 0.0 102622
05:00+6˚wnw236399 0.0 102622
08:00+3˚wnw3368100 0.0 102667
11:00+7˚wnw3352100 0.0 1026243
14:00+10˚nw2245100 0.0 1025367
17:00+8˚nw2253100 0.0 102524
20:00+6˚nw235947 0.0 102523
3 december, thu
thu323:00+5˚nw126343 0.0 102522
02:00+5˚nw2265100 0.0 102522
05:00+4˚wnw1167100 0.0 102522
08:00+5˚nw2366100 0.0 102564
11:00+6˚nw1263100 0.0 1025150
14:00+9˚wnw2257100 0.0 1023304
17:00+8˚nnw3465100 0.1 1023100
20:00+6˚nw1281100 1.4 1023126
4 december, fri
fri423:00+5˚w2279100 3.6 1023138
02:00+4˚nw3484100 1.7 1023209
05:00+3˚nw3490100 4.4 1024285
08:00+1˚nw3491100 2.1 1026236
11:00+1˚nw2391100 3.9 1028259
14:00+3˚n1366100 0.3 1027471
17:00+3˚sse228196 0.4 102982
20:00+1˚sse119493 0.1 103090